User: anonymous   Login
Location: Bergen
(60.3910°N, 5.3250°E)
Time: 13:42:26
(UTC+02:00)
Language:

Cosmos 1943 - Orbit

View from above orbital plane
View from above orbital plane
View from above satellite
View from above satellite

Ground track
Ground track

The orbit data is extracted from the following two-line orbital elements,

1 19119U 88039A   18110.66931969 +.00000315 +00000-0 +18703-3 0  9990
2 19119 071.0030 176.0541 0013179 303.6220 179.9414 14.15111883545322
Epoch (UTC): 20 April 2018 16:03:49
Eccentricity: 0.0013179
inclination: 71.0030°
perigee height: 832 km
apogee height: 851 km
right ascension of ascending node: 176.0541°
argument of perigee: 303.6220°
revolutions per day: 14.15111883
mean anomaly at epoch: 179.9414°
orbit number at epoch: 54532

The dashed part of the orbit path shows where the satellite is in the earth's shadow,  

DLR